Location: Clairmont
(55.2667°N, 118.8000°W)
Time: 09:32:55
(UTC+00:00)

N. Korean satellite - Pass Details

Date: 30 October 2020
Orbit: 453 x 503 km, 97.2° (Epoch: 03 December)

Event Time Altitude Azimuth Distance (km) Brightness Sun altitude
Rises 13:27:19 0° 16° (NNE) 2,488 10.3 -13.1°
Reaches altitude 10° 13:29:24 10° 21° (NNE) 1,606 9.4 -12.8°
Maximum altitude 13:32:48 58° 101° (ESE) 536 7.1 -12.4°
Drops below altitude 10° 13:36:10 10° 182° (S) 1,591 9.2 -11.9°
Sets 13:38:13 0° 186° (S) 2,462 10.2 -11.6°
